Provincetown, MA

4:59 AM EDT on July 24, 2017 (GMT -0400)
Provincetown Municipal

Weather History for KPVC - March, 2013

Change the Weather History Date:

Thursday, March 7, 2013

  Actual Average Record
Temperature  
Mean Temperature 36 °F -  
Max Temperature 37 °F 39 °F 55 °F (2009)
Min Temperature 35 °F 28 °F 8 °F (2014)
Degree Days  
Heating Degree Days 29    
Moisture  
Dew Point 35 °F    
Average Humidity 94    
Maximum Humidity 100    
Minimum Humidity 87    
Precipitation  
Precipitation 0.00 in - - ()
Sea Level Pressure  
Sea Level Pressure 29.94 in    
Wind  
Wind Speed 35 mph (NE)    
Max Wind Speed 44 mph    
Max Gust Speed 56 mph    
Visibility 4 miles    
Events      
Averages and records for this station are not official NWS values.
T = Trace of Precipitation, MM = Missing Value Source: NWS Daily Summary

Daily Weather History Graph

Daily Weather History Graph

Search for Another Location

Airport or City:

Trip Planner

Search our weather history database for the weather conditions in past years. The results will help you decide how hot, cold, wet, or windy it might be!

Date:

Astronomy

Mar. 07, 2013 Rise Set
Actual Time 6:05 AM EST 5:38 PM EST
Civil Twilight 5:38 AM EST 6:06 PM EST
Nautical Twilight 5:05 AM EST 6:38 PM EST
Astronomical Twilight 4:33 AM EST 7:11 PM EST
Moon 3:06 AM EST (3/7) 1:19 PM EST (3/7)
Length of Visible Light 12h 28m
Length of Day
11h 32m
Waning Crescent, 20% of the Moon is Illuminated
Mar 7
Waning Crescent
Mar 11
New
Mar 19
First Quarter
Mar 27
Full
Apr 3
Last Quarter

Hourly Weather History & Observations

Time (EST) Temp. Windchill Dew Point Humidity Pressure Visibility Wind Dir Wind Speed Gust Speed Precip Events Conditions
12:15 AM 37.4 °F 24.4 °F 33.8 °F 87% 29.99 in 7.0 mi ENE 33.4 mph 44.9 mph N/A   Overcast
12:35 AM 37.4 °F 24.0 °F 33.8 °F 87% 29.98 in 7.0 mi NE 35.7 mph 42.6 mph N/A   Overcast
12:55 AM 37.4 °F 25.2 °F 35.6 °F 93% 29.98 in 6.0 mi ENE 28.8 mph 41.4 mph N/A   Overcast
1:35 AM 37.4 °F 23.8 °F 33.8 °F 87% 29.96 in 7.0 mi NE 36.8 mph 47.2 mph N/A   Overcast
1:55 AM 37.4 °F 24.2 °F 35.6 °F 93% 29.96 in 5.0 mi NE 34.5 mph 46.0 mph N/A   Overcast
2:15 AM 35.6 °F 21.9 °F 35.6 °F 100% 29.95 in 3.0 mi NE 33.4 mph 44.9 mph N/A   Overcast
2:35 AM 35.6 °F 22.1 °F 35.6 °F 100% 29.94 in 3.0 mi NE 32.2 mph 44.9 mph N/A   Overcast
2:55 AM 35.6 °F 21.3 °F 35.6 °F 100% 29.94 in 5.0 mi NE 36.8 mph 46.0 mph N/A   Overcast
3:15 AM 37.4 °F 23.6 °F 33.8 °F 87% 29.93 in 6.0 mi NE 38.0 mph 46.0 mph N/A   Overcast
3:55 AM 37.4 °F 24.4 °F 33.8 °F 87% 29.92 in 7.0 mi NE 33.4 mph 50.6 mph N/A   Overcast
4:15 AM 37.4 °F 24.6 °F 33.8 °F 87% 29.93 in 7.0 mi NE 32.2 mph 49.5 mph N/A   Overcast
4:35 AM 35.6 °F 21.5 °F 33.8 °F 93% 29.93 in 5.0 mi NE 35.7 mph 48.3 mph N/A   Overcast
4:55 AM 35.6 °F 21.7 °F 33.8 °F 93% 29.93 in 3.0 mi ENE 34.5 mph 46.0 mph N/A   Overcast
5:15 AM 35.6 °F 21.5 °F 33.8 °F 93% 29.94 in 4.0 mi ENE 35.7 mph 47.2 mph N/A   Overcast
5:35 AM 35.6 °F 21.9 °F 33.8 °F 93% 29.93 in 3.0 mi NE 33.4 mph 44.9 mph N/A   Overcast
5:55 AM 35.6 °F 21.5 °F 35.6 °F 100% 29.93 in 4.0 mi ENE 35.7 mph 46.0 mph N/A   Overcast
6:15 AM 37.4 °F 23.8 °F 35.6 °F 93% 29.93 in 5.0 mi ENE 36.8 mph 47.2 mph N/A   Overcast
6:35 AM 37.4 °F 24.6 °F 33.8 °F 87% 29.93 in 3.0 mi NE 32.2 mph 46.0 mph N/A   Overcast
6:55 AM 37.4 °F 23.6 °F 35.6 °F 93% 29.93 in 3.0 mi NE 38.0 mph 50.6 mph N/A   Overcast
7:15 AM 37.4 °F 24.0 °F 35.6 °F 93% 29.94 in 3.0 mi NE 35.7 mph 47.2 mph N/A   Overcast
7:35 AM 37.4 °F 24.0 °F 33.8 °F 87% 29.94 in 3.0 mi NE 35.7 mph 47.2 mph N/A   Overcast
7:55 AM 37.4 °F 24.6 °F 35.6 °F 93% 29.95 in 2.5 mi NE 32.2 mph 47.2 mph N/A   Overcast
8:15 AM 37.4 °F 24.6 °F 33.8 °F 87% 29.95 in 3.0 mi NE 32.2 mph 43.7 mph N/A   Overcast
8:35 AM 37.4 °F 23.8 °F 35.6 °F 93% 29.94 in 3.0 mi NE 36.8 mph 48.3 mph N/A   Overcast
8:55 AM 37.4 °F 24.6 °F 35.6 °F 93% 29.94 in 2.5 mi NE 32.2 mph 46.0 mph N/A   Overcast
9:15 AM 37.4 °F 24.8 °F 35.6 °F 93% 29.94 in 3.0 mi NE 31.1 mph 43.7 mph N/A   Overcast
9:35 AM 35.6 °F 21.9 °F 35.6 °F 100% 29.94 in 3.0 mi NE 33.4 mph 47.2 mph N/A   Overcast
9:55 AM 35.6 °F 21.9 °F 35.6 °F 100% 29.94 in 2.5 mi NE 33.4 mph 46.0 mph N/A   Overcast
10:15 AM 37.4 °F 24.4 °F 33.8 °F 87% 29.94 in 3.0 mi NE 33.4 mph 47.2 mph N/A   Overcast
10:35 AM 37.4 °F 24.6 °F 35.6 °F 93% 29.93 in 3.0 mi NE 32.2 mph 48.3 mph N/A   Overcast
10:55 AM 37.4 °F 24.0 °F 35.6 °F 93% 29.93 in 4.0 mi NE 35.7 mph 44.9 mph N/A   Overcast
11:15 AM 35.6 °F 21.3 °F 33.8 °F 93% 29.93 in 4.0 mi NE 36.8 mph 48.3 mph N/A   Overcast
11:35 AM 37.4 °F 24.0 °F 35.6 °F 93% 29.94 in 4.0 mi NE 35.7 mph 49.5 mph N/A   Overcast
11:55 AM 37.4 °F 24.4 °F 35.6 °F 93% 29.93 in 4.0 mi NE 33.4 mph 46.0 mph N/A   Overcast
12:15 PM 35.6 °F 21.3 °F 35.6 °F 100% 29.93 in 3.0 mi NE 36.8 mph 49.5 mph N/A   Overcast
12:35 PM 35.6 °F 22.5 °F 35.6 °F 100% 29.93 in 4.0 mi NE 29.9 mph 43.7 mph N/A   Overcast
12:55 PM 35.6 °F 22.1 °F 33.8 °F 93% 29.93 in 3.0 mi NE 32.2 mph 51.8 mph N/A   Overcast
1:15 PM 35.6 °F 21.3 °F 35.6 °F 100% 29.93 in 3.0 mi NE 36.8 mph 44.9 mph N/A   Overcast
1:35 PM 35.6 °F 21.5 °F 33.8 °F 93% 29.92 in 4.0 mi NE 35.7 mph 44.9 mph N/A   Overcast
1:55 PM 35.6 °F 21.7 °F 33.8 °F 93% 29.93 in 4.0 mi NNE 34.5 mph 48.3 mph N/A   Overcast
2:15 PM 35.6 °F 21.9 °F 33.8 °F 93% 29.93 in 3.0 mi NE 33.4 mph 49.5 mph N/A   Overcast
2:35 PM 35.6 °F 21.7 °F 33.8 °F 93% 29.93 in 3.0 mi NNE 34.5 mph 52.9 mph N/A   Overcast
2:55 PM 35.6 °F 21.7 °F 33.8 °F 93% 29.93 in 3.0 mi NE 34.5 mph 49.5 mph N/A   Overcast
3:15 PM 35.6 °F 21.1 °F 33.8 °F 93% 29.93 in 3.0 mi NNE 38.0 mph 48.3 mph N/A   Overcast
3:35 PM 35.6 °F 21.5 °F 33.8 °F 93% 29.93 in 3.0 mi NNE 35.7 mph 46.0 mph N/A   Overcast
3:55 PM 35.6 °F 20.8 °F 33.8 °F 93% 29.93 in 3.0 mi NNE 40.3 mph 47.2 mph N/A   Overcast
4:15 PM 35.6 °F 21.0 °F 35.6 °F 100% 29.93 in 3.0 mi NNE 39.1 mph 51.8 mph N/A   Overcast
4:35 PM 35.6 °F 21.7 °F 35.6 °F 100% 29.92 in 3.0 mi NE 34.5 mph 49.5 mph N/A   Overcast
4:55 PM 35.6 °F 21.3 °F 33.8 °F 93% 29.93 in 3.0 mi NE 36.8 mph 49.5 mph N/A   Overcast
5:15 PM 37.4 °F 24.0 °F 35.6 °F 93% 29.93 in 3.0 mi NE 35.7 mph 48.3 mph N/A   Overcast
5:35 PM 35.6 °F 21.7 °F 35.6 °F 100% 29.93 in 3.0 mi NE 34.5 mph 49.5 mph N/A   Overcast
5:55 PM 35.6 °F 21.1 °F 33.8 °F 93% 29.94 in 5.0 mi NNE 38.0 mph 48.3 mph N/A   Overcast
6:15 PM 35.6 °F 20.8 °F 33.8 °F 93% 29.94 in 5.0 mi NNE 40.3 mph 48.3 mph N/A   Overcast
6:35 PM 35.6 °F 21.1 °F 33.8 °F 93% 29.95 in 4.0 mi NNE 38.0 mph 50.6 mph N/A   Overcast
6:55 PM 35.6 °F 21.1 °F 33.8 °F 93% 29.95 in 3.0 mi NNE 38.0 mph 49.5 mph N/A   Overcast
7:15 PM 35.6 °F 21.1 °F 33.8 °F 93% 29.95 in 2.5 mi NNE 38.0 mph 47.2 mph N/A   Overcast
7:35 PM 35.6 °F 20.3 °F 33.8 °F 93% 29.95 in 2.5 mi NNE 43.7 mph 50.6 mph N/A   Overcast
7:55 PM 35.6 °F 21.0 °F 33.8 °F 93% 29.94 in 2.5 mi NNE 39.1 mph 56.4 mph N/A   Overcast
8:15 PM 35.6 °F 21.9 °F 35.6 °F 100% 29.94 in 3.0 mi NNE 33.4 mph 44.9 mph N/A   Overcast
8:35 PM 35.6 °F 20.5 °F 33.8 °F 93% 29.94 in 2.5 mi NNE 42.6 mph 50.6 mph N/A   Overcast
8:55 PM 35.6 °F 21.3 °F 35.6 °F 100% 29.93 in 2.5 mi NNE 36.8 mph 47.2 mph N/A   Mostly Cloudy
9:15 PM 35.6 °F 21.5 °F 33.8 °F 93% 29.93 in 4.0 mi NNE 35.7 mph 49.5 mph N/A   Overcast
9:35 PM 35.6 °F 21.5 °F 33.8 °F 93% 29.92 in 4.0 mi NNE 35.7 mph 43.7 mph N/A   Overcast
9:55 PM 35.6 °F 21.0 °F 33.8 °F 93% 29.92 in 4.0 mi NNE 39.1 mph 47.2 mph N/A   Overcast
10:15 PM 35.6 °F 20.8 °F 33.8 °F 93% 29.92 in 4.0 mi NNE 40.3 mph 49.5 mph N/A   Overcast
10:55 PM 35.6 °F 21.5 °F 33.8 °F 93% 29.92 in 3.0 mi NNE 35.7 mph 48.3 mph N/A   Overcast
11:15 PM 35.6 °F 22.1 °F 33.8 °F 93% 29.91 in 3.0 mi NE 32.2 mph 46.0 mph N/A   Overcast
11:35 PM 35.6 °F 21.9 °F 35.6 °F 100% 29.91 in 4.0 mi NNE 33.4 mph 42.6 mph N/A   Overcast
11:55 PM 35.6 °F 21.9 °F 33.8 °F 93% 29.90 in 3.0 mi NNE 33.4 mph 44.9 mph N/A   Overcast